Location: Unspecified
(0.0000°N, 0.0000°E)
Time: 10:00:21
(UTC+01:00)

SWIFT - Visible Passes

Search period start: 01 November 2014 00:00
Search period end: 11 November 2014 00:00
Orbit: 559 x 576 km, 20.6° (Epoch: 30 October)

Date Brightness Start Highest point End Pass type
(mag) Time Alt. Az. Time Alt. Az. Time Alt. Az.
01 Nov 2.8 20:20:15 10° SW 20:24:03 51° S 20:24:03 51° S visible
02 Nov 2.3 20:18:54 10° WSW 20:22:58 76° SSW 20:22:58 76° SSW visible
03 Nov 2.4 20:17:41 10° WSW 20:21:52 67° NNW 20:21:52 67° NNW visible
04 Nov 4.9 04:56:58 12° NNE 04:56:58 12° NNE 04:58:12 10° NE visible
04 Nov 3.0 20:16:34 10° W 20:20:41 44° NNW 20:20:46 44° NNW visible
05 Nov 4.6 04:55:52 16° NNE 04:55:52 16° NNE 04:58:03 10° ENE visible
05 Nov 3.6 20:15:36 10° W 20:19:25 31° NNW 20:19:38 30° NNW visible
06 Nov 4.2 04:54:44 22° NNE 04:54:44 22° NNE 04:57:29 10° ENE visible
06 Nov 4.0 20:14:48 10° WNW 20:18:10 22° NNW 20:18:30 22° NNW visible
07 Nov 3.8 04:53:36 29° NE 04:53:36 29° NE 04:56:40 10° E visible
07 Nov 4.4 20:14:14 10° WNW 20:16:56 16° NNW 20:17:20 16° NNW visible
08 Nov 3.4 04:52:26 39° ENE 04:52:26 39° ENE 04:55:40 10° E visible
08 Nov 4.8 20:14:03 10° NW 20:15:43 12° NNW 20:16:08 12° N visible
09 Nov 3.2 04:51:14 48° E 04:51:14 48° E 04:54:29 10° ESE visible
10 Nov 3.2 04:50:01 48° SE 04:50:01 48° SE 04:53:10 10° ESE visible
